FW3241 Weather Reports


Display with metric or nautical units.
time (UTC)temp
F
wind
direction
speed
MPH
gust
MPH
rain 1hr
in
rain 24hr
in
rain mn
in
humidity
%
barometer
mb
20260901153022 71 158 0.0 1.0 0.00 0.00 0.00 73 1022.5
20260901151515 70 158 0.0 1.0 0.00 0.00 0.00 73 1022.4
20260901150025 70 158 0.0 0.0 0.00 0.00 0.00 73 1022.4
20260901144510 70 158 0.0 1.0 0.00 0.00 0.00 72 1022.3
20260901143007 70 158 0.0 0.0 0.00 0.00 0.00 73 1022.3
20260901141507 69 158 0.0 1.0 0.00 0.00 0.00 70 1022.2
20260901140003 69 158 0.0 0.0 0.00 0.00 0.00 71 1022.1
20260901134503 68 158 0.0 0.0 0.00 0.00 0.00 74 1022.1
20260901133108 68 158 0.0 0.0 0.00 0.00 0.00 73 1022.0
20260901131603 68 158 0.0 0.0 0.00 0.00 0.00 75 1022.0
20260901130059 67 158 0.0 0.0 0.00 0.00 0.00 76 1022.0
20260901124559 67 158 0.0 0.0 0.00 0.00 0.00 76 1022.0
20260901123058 67 158 0.0 0.0 0.00 0.00 0.00 77 1022.0
20260901121558 66 158 0.0 0.0 0.00 0.00 0.00 77 1022.0
20260901120118 66 158 0.0 0.0 0.00 0.00 0.00 77 1021.9
20260901114555 66 158 0.0 0.0 0.00 0.00 0.00 77 1021.8
20260901113058 66 158 0.0 0.0 0.00 0.00 0.00 77 1021.5
20260901111553 66 158 0.0 0.0 0.00 0.00 0.00 77 1021.3
20260901110058 66 158 0.0 0.0 0.00 0.00 0.00 77 1021.1
20260901104557 66 158 0.0 0.0 0.00 0.00 0.00 77 1021.0
20260901103050 66 158 0.0 0.0 0.00 0.00 0.00 77 1021.0
20260901101554 66 158 0.0 0.0 0.00 0.00 0.00 77 1020.9
20260901100049 66 158 0.0 0.0 0.00 0.00 0.00 77 1020.7
20260901094550 66 158 0.0 0.0 0.00 0.00 0.00 77 1020.7
20260901093052 67 158 0.0 0.0 0.00 0.00 0.00 76 1020.8
20260901091558 67 158 0.0 0.0 0.00 0.00 0.00 76 1020.8
20260901090044 67 158 0.0 0.0 0.00 0.00 0.00 76 1020.7
20260901084543 67 158 0.0 0.0 0.00 0.00 0.00 76 1020.9
20260901083043 67 158 0.0 0.0 0.00 0.00 0.00 75 1021.0
20260901081542 67 158 0.0 0.0 0.00 0.00 0.00 75 1021.0
20260901080041 67 158 0.0 0.0 0.00 0.00 0.00 75 1021.0
20260901074548 67 158 0.0 0.0 0.00 0.00 0.00 76 1021.0
20260901073039 67 158 0.0 0.0 0.00 0.00 0.00 77 1021.1
20260901071538 67 158 0.0 0.0 0.00 0.00 0.00 77 1021.1
20260901070037 67 158 0.0 0.0 0.00 0.00 0.00 77 1021.2
20260901064537 67 158 0.0 0.0 0.00 0.00 0.00 77 1021.2
20260901063036 67 158 0.0 0.0 0.00 0.00 0.00 76 1021.2
20260901061533 68 158 0.0 0.0 0.00 0.00 0.00 76 1021.4
20260901060033 68 158 0.0 0.0 0.00 0.00 0.00 76 1021.6
20260901054530 68 158 0.0 0.0 0.00 0.00 0.00 76 1021.5
20260901053030 68 158 0.0 0.0 0.00 0.00 0.00 76 1021.5
20260901051529 68 158 0.0 0.0 0.00 0.00 0.00 76 1021.5
20260901050028 68 158 0.0 0.0 0.00 0.00 0.00 76 1021.7
20260901044529 68 158 0.0 0.0 0.00 0.00 0.00 76 1021.6
20260901043028 68 158 0.0 0.0 0.00 0.00 0.00 76 1021.4
20260901041524 68 158 0.0 0.0 0.00 0.00 0.00 75 1021.4
20260901040021 68 158 0.0 0.0 0.00 0.00 0.00 76 1021.4
20260901034520 68 158 0.0 0.0 0.00 0.00 0.00 75 1021.4
20260901033023 68 158 0.0 0.0 0.00 0.00 0.00 76 1021.4
20260901031530 68 158 0.0 0.0 0.00 0.00 0.00 76 1021.4
20260901030019 68 158 0.0 0.0 0.00 0.00 0.00 76 1021.4
20260901024519 68 158 0.0 0.0 0.00 0.00 0.00 77 1021.5
20260901023026 68 158 0.0 0.0 0.00 0.00 0.00 77 1021.5
20260901021520 68 158 0.0 0.0 0.00 0.00 0.00 77 1021.5
20260901020029 68 158 0.0 1.0 0.00 0.00 0.00 77 1021.4
20260901014521 69 158 0.0 0.0 0.00 0.00 0.00 77 1021.4
20260901013028 69 158 0.0 0.0 0.00 0.00 0.00 76 1021.4
20260901011517 69 158 0.0 0.0 0.00 0.00 0.00 76 1021.2
20260901010021 69 158 0.0 0.0 0.00 0.00 0.00 75 1021.0
20260901004515 70 158 0.0 1.0 0.00 0.00 0.00 75 1020.8
20260901003014 70 158 0.0 0.0 0.00 0.00 0.00 74 1020.9
20260901001521 71 158 0.0 0.0 0.00 0.00 0.00 73 1020.9
20260901000013 71 158 0.0 0.0 0.00 0.00 0.00 73 1021.1
20260831234514 72 158 0.0 0.0 0.00 0.00 0.00 72 1021.0
20260831233013 72 158 0.0 0.0 0.00 0.00 0.00 72 1021.0
20260831231511 72 158 0.0 0.0 0.00 0.00 0.00 72 1021.0
20260831230011 72 158 0.0 0.0 0.00 0.00 0.00 70 1020.9
20260831224510 73 158 0.0 1.0 0.00 0.00 0.00 69 1021.0
20260831223010 73 158 0.0 0.0 0.00 0.00 0.00 70 1020.9
20260831221508 73 158 0.0 2.0 0.00 0.00 0.00 70 1021.2
20260831220007 73 158 0.0 0.0 0.00 0.00 0.00 69 1021.1
20260831214506 74 158 0.0 0.0 0.00 0.00 0.00 70 1021.2
20260831213010 74 158 0.0 0.0 0.00 0.00 0.00 69 1021.3
20260831211505 74 158 0.0 2.0 0.00 0.00 0.00 69 1021.4
20260831210004 73 158 0.0 0.0 0.00 0.00 0.00 71 1021.3
20260831204503 72 158 0.0 1.0 0.00 0.00 0.00 70 1021.3
20260831203002 72 158 0.0 2.0 0.00 0.00 0.00 70 1021.4
20260831201501 71 158 0.0 0.0 0.00 0.00 0.00 72 1021.6
20260831200100 71 158 0.0 0.0 0.00 0.00 0.00 75 1021.7
20260831194624 70 158 0.0 0.0 0.00 0.00 0.00 73 1021.7
20260831193058 70 158 0.0 0.0 0.00 0.00 0.00 74 1021.8
20260831191604 70 158 0.0 0.0 0.00 0.00 0.00 73 1021.9
20260831190108 70 158 0.0 1.0 0.00 0.00 0.00 71 1022.0
20260831184558 71 158 1.0 2.0 0.00 0.00 0.00 69 1022.1
20260831183059 74 159 0.0 2.0 0.00 0.00 0.00 67 1022.2
20260831181559 76 159 0.0 2.0 0.00 0.00 0.00 66 1022.0
20260831180055 77 159 0.0 2.0 0.00 0.00 0.00 63 1022.1
20260831174559 77 123 0.0 1.0 0.00 0.00 0.00 66 1022.1
20260831173117 76 123 0.0 1.0 0.00 0.00 0.00 67 1022.3
20260831171547 74 123 0.0 0.0 0.00 0.00 0.00 69 1022.5
20260831170041 72 123 0.0 2.0 0.00 0.00 0.00 73 1022.7
20260831164546 71 123 0.0 1.0 0.00 0.00 0.00 74 1022.9
20260831163040 71 123 0.0 1.0 0.00 0.00 0.00 76 1023.1
20260831161535 71 123 0.0 1.0 0.00 0.00 0.00 76 1023.2
20260831160036 70 123 0.0 1.0 0.00 0.00 0.00 77 1023.1
20260831154535 69 123 0.0 0.0 0.00 0.00 0.00 79 1023.1